Location: Aranbee
(34.0885°N, 118.2342°W)
Time: 08:15:45
(UTC+00:00)

Courier 1B Rocket - Pass Details

Date: 02 December 2020
Orbit: 920 x 1202 km, 28.2° (Epoch: 27 January)

Event Time Altitude Azimuth Distance (km) Brightness Sun altitude
Rises 15:19:10 0° 268° (W) 4,095 7.7 5.9°
Reaches altitude 10° 15:22:08 10° 263° (W) 3,129 7.2 6.4°
Maximum altitude 15:29:36 49° 191° (SSW) 1,478 6.3 7.7°
Drops below altitude 10° 15:36:48 10° 119° (ESE) 3,020 10.7 9.0°
Sets 15:39:36 0° 114° (ESE) 3,942 10.2 9.5°
